Time,TemperatureF,DewpointF,PressureIn,WindDirection,WindDirectionDegrees,WindSpeedMPH,WindSpeedGustMPH,Humidity,HourlyPrecipIn,Conditions,Clouds,dailyrainin,SoftwareType,DateUTC
2013-06-25 00:00:00,81.7,60.1,18.75,North,357,0.0,0.0,48,0.00,,SKC,0.00,VWS V13.01,2013-06-25 05:00:00,
2013-06-25 00:10:00,81.7,59.5,18.75,NNE,33,0.0,0.0,47,0.00,,SKC,0.00,VWS V13.01,2013-06-25 05:10:00,
2013-06-25 00:20:00,81.9,59.7,18.75,NE,43,0.0,0.0,47,0.00,,SKC,0.00,VWS V13.01,2013-06-25 05:20:00,
2013-06-25 00:30:00,81.9,59.7,18.75,North,6,0.0,3.6,47,0.00,,SKC,0.00,VWS V13.01,2013-06-25 05:30:00,
2013-06-25 00:40:00,81.9,59.7,18.75,NE,34,0.0,3.6,47,0.00,,SKC,0.00,VWS V13.01,2013-06-25 05:40:00,
2013-06-25 00:50:00,81.9,60.3,18.75,ENE,65,0.0,3.1,48,0.00,,SKC,0.00,VWS V13.01,2013-06-25 05:50:00,
2013-06-25 01:00:00,82.0,60.4,18.75,NNE,18,2.7,3.6,48,0.00,,SKC,0.00,VWS V13.01,2013-06-25 06:00:00,
2013-06-25 01:10:00,82.0,60.4,18.75,ENE,69,0.0,2.7,48,0.00,,SKC,0.00,VWS V13.01,2013-06-25 06:10:00,
2013-06-25 01:20:00,82.0,60.4,18.75,NNW,338,0.0,4.9,48,0.00,,SKC,0.00,VWS V13.01,2013-06-25 06:20:00,
2013-06-25 01:30:00,81.9,60.3,18.75,NNE,28,0.0,5.8,48,0.00,,SKC,0.00,VWS V13.01,2013-06-25 06:30:00,
2013-06-25 01:40:00,81.7,60.1,18.75,NNE,24,0.0,0.0,48,0.00,,SKC,0.00,VWS V13.01,2013-06-25 06:40:00,
2013-06-25 01:50:00,81.7,60.1,18.75,NE,51,0.0,4.0,48,0.00,,SKC,0.00,VWS V13.01,2013-06-25 06:50:00,
2013-06-25 02:00:00,81.5,60.5,18.75,NNE,22,0.0,3.1,49,0.00,,SKC,0.00,VWS V13.01,2013-06-25 07:00:00,
2013-06-25 02:10:00,81.5,60.5,18.75,NNE,19,0.0,3.6,49,0.00,,SKC,0.00,VWS V13.01,2013-06-25 07:10:00,
2013-06-25 02:20:00,81.5,60.5,18.75,ENE,64,0.0,2.7,49,0.00,,SKC,0.00,VWS V13.01,2013-06-25 07:20:00,
2013-06-25 02:30:00,81.5,60.5,18.75,North,4,2.2,11.0,49,0.00,,SKC,0.00,VWS V13.01,2013-06-25 07:30:00,
2013-06-25 02:40:00,81.5,61.1,18.75,North,0,2.2,4.5,50,0.00,,SKC,0.00,VWS V13.01,2013-06-25 07:40:00,
2013-06-25 02:50:00,81.3,60.9,18.75,NE,42,0.0,3.6,50,0.00,,SKC,0.00,VWS V13.01,2013-06-25 07:50:00,
2013-06-25 03:00:00,81.1,60.8,18.75,NE,45,0.0,4.0,50,0.00,,SKC,0.00,VWS V13.01,2013-06-25 08:00:00,
2013-06-25 03:10:00,81.0,60.6,18.75,NE,40,0.0,5.4,50,0.00,,SKC,0.00,VWS V13.01,2013-06-25 08:10:00,
2013-06-25 03:20:00,80.8,61.0,18.75,NE,43,0.0,0.0,51,0.00,,SKC,0.00,VWS V13.01,2013-06-25 08:20:00,
2013-06-25 03:30:00,80.6,60.8,18.75,ENE,71,0.0,3.1,51,0.00,,SKC,0.00,VWS V13.01,2013-06-25 08:30:00,
2013-06-25 03:40:00,80.6,60.8,18.75,NE,46,0.0,3.6,51,0.00,,SKC,0.00,VWS V13.01,2013-06-25 08:40:00,
2013-06-25 03:50:00,80.4,60.7,18.75,NNE,17,0.0,4.0,51,0.00,,SKC,0.00,VWS V13.01,2013-06-25 08:50:00,
2013-06-25 04:00:00,80.2,61.0,18.75,NE,34,0.0,3.6,52,0.00,,SKC,0.00,VWS V13.01,2013-06-25 09:00:00,
2013-06-25 04:10:00,80.1,60.9,18.75,NNE,32,0.0,4.0,52,0.00,,SKC,0.00,VWS V13.01,2013-06-25 09:10:00,
2013-06-25 04:20:00,80.4,60.7,18.75,SE,127,0.0,6.3,51,0.00,,SKC,0.00,VWS V13.01,2013-06-25 09:20:00,
2013-06-25 04:30:00,80.6,59.7,18.75,North,353,0.0,7.2,49,0.00,,SKC,0.00,VWS V13.01,2013-06-25 09:30:00,
2013-06-25 04:40:00,81.0,59.4,18.75,SE,140,0.0,3.6,48,0.00,,SKC,0.00,VWS V13.01,2013-06-25 09:40:00,
2013-06-25 04:50:00,81.1,59.6,18.75,SE,133,4.0,4.9,48,0.00,,SKC,0.00,VWS V13.01,2013-06-25 09:50:00,
2013-06-25 05:00:00,81.0,59.4,18.75,NE,43,0.0,4.0,48,0.00,,SKC,0.00,VWS V13.01,2013-06-25 10:00:00,
2013-06-25 05:10:00,80.8,59.3,18.75,NNE,16,0.0,2.2,48,0.00,,SKC,0.00,VWS V13.01,2013-06-25 10:10:00,
2013-06-25 05:20:00,80.8,59.3,18.75,NE,38,0.0,3.1,48,0.00,,SKC,0.00,VWS V13.01,2013-06-25 10:20:00,
2013-06-25 05:30:00,80.6,59.7,18.75,NNE,33,0.0,3.1,49,0.00,,SKC,0.00,VWS V13.01,2013-06-25 10:30:00,
2013-06-25 05:40:00,80.6,59.7,18.75,NE,34,0.0,3.6,49,0.00,,SKC,0.00,VWS V13.01,2013-06-25 10:40:00,
2013-06-25 05:50:00,80.4,60.1,18.75,NE,44,0.0,5.4,50,0.00,,SKC,0.00,VWS V13.01,2013-06-25 10:50:00,
2013-06-25 06:00:00,80.4,60.1,18.75,NE,40,2.2,5.4,50,0.00,,SKC,0.00,VWS V13.01,2013-06-25 11:00:00,
2013-06-25 06:10:00,80.2,60.5,18.75,North,5,0.0,4.9,51,0.00,,SKC,0.00,VWS V13.01,2013-06-25 11:10:00,
2013-06-25 06:20:00,80.1,60.3,18.75,NNW,333,3.6,7.6,51,0.00,,SKC,0.00,VWS V13.01,2013-06-25 11:20:00,
2013-06-25 06:30:00,80.2,60.5,18.75,NNE,16,0.0,4.0,51,0.00,,SKC,0.00,VWS V13.01,2013-06-25 11:30:00,
2013-06-25 06:40:00,80.1,60.9,18.75,NE,45,0.0,4.5,52,0.00,,SKC,0.00,VWS V13.01,2013-06-25 11:40:00,
2013-06-25 06:50:00,79.9,60.7,18.75,North,353,0.0,6.7,52,0.00,,SKC,0.00,VWS V13.01,2013-06-25 11:50:00,
2013-06-25 07:00:00,79.9,60.2,18.75,NE,39,2.2,4.0,51,0.00,,SKC,0.00,VWS V13.01,2013-06-25 12:00:00,
2013-06-25 07:10:00,79.2,62.1,18.75,NE,52,0.0,8.1,56,0.00,,SKC,0.00,VWS V13.01,2013-06-25 12:10:00,
2013-06-25 07:20:00,77.4,61.9,18.75,NNW,348,0.0,7.6,59,0.00,,SKC,0.00,VWS V13.01,2013-06-25 12:20:00,
2013-06-25 07:30:00,75.9,63.3,18.75,NNE,21,0.0,7.6,65,0.00,,SKC,0.00,VWS V13.01,2013-06-25 12:30:00,
2013-06-25 07:40:00,75.6,63.8,18.75,NNE,17,0.0,4.0,67,0.00,,SKC,0.00,VWS V13.01,2013-06-25 12:40:00,
2013-06-25 07:50:00,75.7,63.2,18.75,NE,39,0.0,3.6,65,0.00,,SKC,0.00,VWS V13.01,2013-06-25 12:50:00,
2013-06-25 08:00:00,76.3,61.9,18.75,NNE,18,0.0,3.6,61,0.00,,SKC,0.00,VWS V13.01,2013-06-25 13:00:00,
2013-06-25 08:10:00,77.0,61.1,18.75,NE,47,0.0,4.9,58,0.00,,SKC,0.00,VWS V13.01,2013-06-25 13:10:00,
2013-06-25 08:20:00,77.0,61.6,18.75,NNE,33,0.0,4.0,59,0.00,,SKC,0.00,VWS V13.01,2013-06-25 13:20:00,
2013-06-25 08:30:00,76.5,62.5,18.75,NE,34,5.4,5.4,62,0.00,,SKC,0.00,VWS V13.01,2013-06-25 13:30:00,
2013-06-25 08:40:00,75.7,63.2,18.75,NNE,22,3.6,5.4,65,0.00,,SKC,0.00,VWS V13.01,2013-06-25 13:40:00,
2013-06-25 08:50:00,75.2,63.5,18.75,ENE,76,3.1,5.8,67,0.00,,SKC,0.00,VWS V13.01,2013-06-25 13:50:00,
2013-06-25 09:00:00,74.5,64.1,18.75,South,189,0.0,5.4,70,0.00,,SKC,0.00,VWS V13.01,2013-06-25 14:00:00,
2013-06-25 09:10:00,73.9,64.3,18.75,NNE,16,0.0,2.7,72,0.00,,SKC,0.00,VWS V13.01,2013-06-25 14:10:00,
2013-06-25 09:20:00,73.8,65.7,18.75,NE,56,4.9,4.9,76,0.00,,SKC,0.00,VWS V13.01,2013-06-25 14:20:00,
2013-06-25 09:30:00,73.4,66.5,18.75,NNE,20,0.0,4.9,79,0.00,,SKC,0.00,VWS V13.01,2013-06-25 14:30:00,
2013-06-25 09:40:00,73.2,67.8,18.75,SSW,200,0.0,2.7,83,0.00,,SKC,0.00,VWS V13.01,2013-06-25 14:40:00,
2013-06-25 09:50:00,73.2,68.4,18.75,NE,55,0.0,0.0,85,0.00,,SKC,0.00,VWS V13.01,2013-06-25 14:50:00,
2013-06-25 10:00:00,73.2,69.1,18.75,NE,48,0.0,0.0,87,0.00,,SKC,0.00,VWS V13.01,2013-06-25 15:00:00,
2013-06-25 10:10:00,73.2,69.5,18.75,ENE,70,0.0,0.0,88,0.00,,SKC,0.00,VWS V13.01,2013-06-25 15:10:00,
2013-06-25 10:20:00,73.2,69.5,18.75,ENE,70,0.0,0.0,88,0.00,,SKC,0.00,VWS V13.01,2013-06-25 15:20:00,
2013-06-25 10:30:00,73.2,69.8,18.75,ENE,70,0.0,0.0,89,0.04,,SKC,0.04,VWS V13.01,2013-06-25 15:30:00,
2013-06-25 10:40:00,73.0,69.6,18.75,ENE,70,0.0,0.0,89,0.04,,SKC,0.04,VWS V13.01,2013-06-25 15:40:00,
2013-06-25 10:50:00,73.0,70.3,18.75,ENE,70,0.0,0.0,91,0.04,,SKC,0.04,VWS V13.01,2013-06-25 15:50:00,
2013-06-25 11:00:00,72.9,70.4,18.75,ENE,70,0.0,0.0,92,0.04,,SKC,0.04,VWS V13.01,2013-06-25 16:00:00,
2013-06-25 11:10:00,72.9,71.0,18.75,ENE,65,0.0,0.0,94,0.04,,SKC,0.04,VWS V13.01,2013-06-25 16:10:00,
2013-06-25 11:20:00,73.2,72.3,18.75,NNE,29,0.0,0.0,97,0.04,,SKC,0.04,VWS V13.01,2013-06-25 16:20:00,
2013-06-25 11:30:00,74.1,73.5,18.75,NE,49,0.0,0.0,98,0.04,,SKC,0.04,VWS V13.01,2013-06-25 16:30:00,
2013-06-25 11:40:00,75.4,75.1,18.75,NNE,32,0.0,0.0,99,0.00,,SKC,0.04,VWS V13.01,2013-06-25 16:40:00,
2013-06-25 11:50:00,76.8,75.3,18.75,NE,50,0.0,0.0,95,0.00,,SKC,0.04,VWS V13.01,2013-06-25 16:50:00,
2013-06-25 12:00:00,78.1,73.2,18.75,East,79,0.0,0.0,85,0.00,,SKC,0.04,VWS V13.01,2013-06-25 17:00:00,
2013-06-25 12:10:00,79.3,69.5,18.75,NE,44,0.0,0.0,72,0.00,,SKC,0.04,VWS V13.01,2013-06-25 17:10:00,
2013-06-25 12:20:00,80.6,67.3,18.75,NNE,26,0.0,2.2,64,0.00,,SKC,0.04,VWS V13.01,2013-06-25 17:20:00,
2013-06-25 12:30:00,81.5,67.2,18.75,North,9,6.3,6.3,62,0.00,,SKC,0.04,VWS V13.01,2013-06-25 17:30:00,
2013-06-25 12:40:00,82.4,67.1,18.75,ESE,103,0.0,6.3,60,0.00,,SKC,0.04,VWS V13.01,2013-06-25 17:40:00,
2013-06-25 12:50:00,82.6,66.3,18.75,North,8,0.0,2.7,58,0.00,,SKC,0.04,VWS V13.01,2013-06-25 17:50:00,
2013-06-25 13:00:00,82.8,66.5,18.75,ENE,59,0.0,0.0,58,0.00,,SKC,0.04,VWS V13.01,2013-06-25 18:00:00,
2013-06-25 13:10:00,84.0,67.2,18.75,NE,35,0.0,4.0,57,0.00,,SKC,0.04,VWS V13.01,2013-06-25 18:10:00,
2013-06-25 13:20:00,84.4,67.0,18.75,East,87,0.0,0.0,56,0.00,,SKC,0.04,VWS V13.01,2013-06-25 18:20:00,
2013-06-25 13:30:00,85.3,66.8,18.75,NE,41,0.0,5.8,54,0.00,,SKC,0.04,VWS V13.01,2013-06-25 18:30:00,
2013-06-25 13:40:00,86.2,67.6,18.75,NNE,14,0.0,0.0,54,0.00,,SKC,0.04,VWS V13.01,2013-06-25 18:40:00,
2013-06-25 13:50:00,87.1,66.2,18.75,NE,53,0.0,4.0,50,0.00,,SKC,0.04,VWS V13.01,2013-06-25 18:50:00,
2013-06-25 14:00:00,87.8,65.7,18.75,ENE,61,0.0,0.0,48,0.00,,SKC,0.04,VWS V13.01,2013-06-25 19:00:00,
2013-06-25 14:10:00,88.5,64.5,18.75,North,5,0.0,4.0,45,0.00,,SKC,0.04,VWS V13.01,2013-06-25 19:10:00,
2013-06-25 14:20:00,88.3,64.3,18.75,NE,43,0.0,6.3,45,0.00,,SKC,0.04,VWS V13.01,2013-06-25 19:20:00,
2013-06-25 14:30:00,88.5,64.5,18.75,North,11,0.0,3.6,45,0.00,,SKC,0.04,VWS V13.01,2013-06-25 19:30:00,
2013-06-25 14:40:00,88.3,64.3,18.75,NE,39,0.0,3.6,45,0.00,,SKC,0.04,VWS V13.01,2013-06-25 19:40:00,
2013-06-25 14:50:00,88.7,64.7,18.75,North,10,0.0,0.0,45,0.00,,SKC,0.04,VWS V13.01,2013-06-25 19:50:00,
2013-06-25 15:00:00,88.5,64.5,18.75,NE,34,0.0,0.0,45,0.00,,SKC,0.04,VWS V13.01,2013-06-25 20:00:00,
2013-06-25 15:10:00,88.5,64.5,18.75,NE,46,0.0,0.0,45,0.00,,SKC,0.04,VWS V13.01,2013-06-25 20:10:00,
2013-06-25 15:20:00,88.2,64.2,18.75,NE,51,0.0,4.9,45,0.00,,SKC,0.04,VWS V13.01,2013-06-25 20:20:00,
2013-06-25 15:30:00,88.2,64.2,18.75,NW,324,0.0,2.2,45,0.00,,SKC,0.04,VWS V13.01,2013-06-25 20:30:00,
2013-06-25 15:40:00,88.5,64.5,18.75,ENE,74,0.0,0.0,45,0.00,,SKC,0.04,VWS V13.01,2013-06-25 20:40:00,
2013-06-25 15:50:00,88.5,63.8,18.75,East,101,0.0,2.2,44,0.00,,SKC,0.04,VWS V13.01,2013-06-25 20:50:00,
2013-06-25 16:00:00,88.2,63.5,18.75,NNE,33,5.8,5.8,44,0.00,,SKC,0.04,VWS V13.01,2013-06-25 21:00:00,
2013-06-25 16:10:00,88.0,63.4,18.75,East,79,2.2,5.8,44,0.00,,SKC,0.04,VWS V13.01,2013-06-25 21:10:00,
2013-06-25 16:20:00,88.0,63.4,18.75,North,357,0.0,4.0,44,0.00,,SKC,0.04,VWS V13.01,2013-06-25 21:20:00,
2013-06-25 16:30:00,88.7,64.0,18.75,NE,46,0.0,2.7,44,0.00,,SKC,0.04,VWS V13.01,2013-06-25 21:30:00,
2013-06-25 16:40:00,89.6,64.2,18.75,NNE,19,3.6,4.0,43,0.00,,SKC,0.04,VWS V13.01,2013-06-25 21:40:00,
2013-06-25 16:50:00,89.6,64.2,18.75,NE,37,0.0,4.9,43,0.00,,SKC,0.04,VWS V13.01,2013-06-25 21:50:00,
2013-06-25 17:00:00,89.2,62.5,18.75,ENE,59,0.0,5.4,41,0.00,,SKC,0.04,VWS V13.01,2013-06-25 22:00:00,
2013-06-25 17:10:00,88.7,62.0,18.75,NNE,32,0.0,2.7,41,0.00,,SKC,0.04,VWS V13.01,2013-06-25 22:10:00,
2013-06-25 17:20:00,88.2,63.5,18.75,ENE,66,0.0,3.6,44,0.00,,SKC,0.04,VWS V13.01,2013-06-25 22:20:00,
2013-06-25 17:30:00,88.2,63.5,18.75,NE,34,0.0,3.6,44,0.00,,SKC,0.04,VWS V13.01,2013-06-25 22:30:00,
2013-06-25 17:40:00,88.3,63.7,18.75,NE,50,0.0,4.9,44,0.00,,SKC,0.04,VWS V13.01,2013-06-25 22:40:00,
2013-06-25 17:50:00,88.5,63.8,18.75,NE,36,0.0,2.2,44,0.00,,SKC,0.04,VWS V13.01,2013-06-25 22:50:00,
2013-06-25 18:00:00,88.5,63.8,18.75,North,5,0.0,4.9,44,0.00,,SKC,0.04,VWS V13.01,2013-06-25 23:00:00,
2013-06-25 18:10:00,88.0,63.4,18.75,North,7,0.0,3.6,44,0.00,,SKC,0.04,VWS V13.01,2013-06-25 23:10:00,
2013-06-25 18:20:00,87.6,63.0,18.75,SSW,199,3.6,3.6,44,0.00,,SKC,0.04,VWS V13.01,2013-06-25 23:20:00,
2013-06-25 18:30:00,87.6,63.0,18.75,NE,35,0.0,3.6,44,0.00,,SKC,0.04,VWS V13.01,2013-06-25 23:30:00,
2013-06-25 18:40:00,87.3,62.7,18.75,NE,38,0.0,2.2,44,0.00,,SKC,0.04,VWS V13.01,2013-06-25 23:40:00,
2013-06-25 18:50:00,87.1,63.2,18.75,NE,38,0.0,3.1,45,0.00,,SKC,0.04,VWS V13.01,2013-06-25 23:50:00,
2013-06-25 19:00:00,87.1,63.2,18.75,NNE,30,0.0,0.0,45,0.00,,SKC,0.04,VWS V13.01,2013-06-26 00:00:00,
2013-06-25 19:10:00,87.1,63.2,18.75,NE,41,0.0,2.7,45,0.00,,SKC,0.04,VWS V13.01,2013-06-26 00:10:00,
2013-06-25 19:20:00,86.7,62.9,18.75,NE,55,0.0,0.0,45,0.00,,SKC,0.04,VWS V13.01,2013-06-26 00:20:00,
2013-06-25 19:30:00,86.5,62.7,18.75,East,79,0.0,0.0,45,0.00,,SKC,0.04,VWS V13.01,2013-06-26 00:30:00,
2013-06-25 19:40:00,86.2,63.0,18.75,NNE,22,0.0,0.0,46,0.00,,SKC,0.04,VWS V13.01,2013-06-26 00:40:00,
2013-06-25 19:50:00,85.6,62.5,18.75,NNE,26,0.0,0.0,46,0.00,,SKC,0.04,VWS V13.01,2013-06-26 00:50:00,
2013-06-25 20:00:00,85.3,62.8,18.75,NNE,20,0.0,0.0,47,0.00,,SKC,0.04,VWS V13.01,2013-06-26 01:00:00,
2013-06-25 20:10:00,84.9,63.1,18.75,NE,54,0.0,0.0,48,0.00,,SKC,0.04,VWS V13.01,2013-06-26 01:10:00,
2013-06-25 20:20:00,84.6,62.7,18.75,NE,54,0.0,0.0,48,0.00,,SKC,0.04,VWS V13.01,2013-06-26 01:20:00,
2013-06-25 20:30:00,84.2,63.0,18.75,NE,53,0.0,0.0,49,0.00,,SKC,0.04,VWS V13.01,2013-06-26 01:30:00,
2013-06-25 20:40:00,83.8,63.2,18.75,NE,50,0.0,0.0,50,0.00,,SKC,0.04,VWS V13.01,2013-06-26 01:40:00,
2013-06-25 20:50:00,83.5,63.5,18.75,NE,52,0.0,0.0,51,0.00,,SKC,0.04,VWS V13.01,2013-06-26 01:50:00,
2013-06-25 21:00:00,83.3,63.3,18.75,ENE,78,0.0,0.0,51,0.00,,SKC,0.04,VWS V13.01,2013-06-26 02:00:00,
2013-06-25 21:10:00,83.1,63.7,18.75,East,87,0.0,0.0,52,0.00,,SKC,0.04,VWS V13.01,2013-06-26 02:10:00,
2013-06-25 21:20:00,82.9,64.1,18.75,NE,42,0.0,0.0,53,0.00,,SKC,0.04,VWS V13.01,2013-06-26 02:20:00,
2013-06-25 21:30:00,82.8,64.4,18.75,NE,43,0.0,0.0,54,0.00,,SKC,0.04,VWS V13.01,2013-06-26 02:30:00,
2013-06-25 21:40:00,82.6,64.3,18.75,East,100,0.0,0.0,54,0.00,,SKC,0.04,VWS V13.01,2013-06-26 02:40:00,
2013-06-25 21:50:00,82.2,64.5,18.75,ENE,71,0.0,0.0,55,0.00,,SKC,0.04,VWS V13.01,2013-06-26 02:50:00,
2013-06-25 22:00:00,82.0,64.8,18.75,ENE,71,0.0,0.0,56,0.00,,SKC,0.04,VWS V13.01,2013-06-26 03:00:00,
2013-06-25 22:10:00,81.9,64.6,18.75,ENE,71,0.0,0.0,56,0.00,,SKC,0.04,VWS V13.01,2013-06-26 03:10:00,
2013-06-25 22:20:00,81.7,64.5,18.75,NE,53,0.0,0.0,56,0.00,,SKC,0.04,VWS V13.01,2013-06-26 03:20:00,
2013-06-25 22:30:00,81.5,64.3,18.75,ENE,59,0.0,0.0,56,0.00,,SKC,0.04,VWS V13.01,2013-06-26 03:30:00,
2013-06-25 22:40:00,81.5,64.3,18.75,SE,125,0.0,0.0,56,0.00,,SKC,0.04,VWS V13.01,2013-06-26 03:40:00,
2013-06-25 22:50:00,81.3,64.1,18.75,NNE,33,0.0,0.0,56,0.00,,SKC,0.04,VWS V13.01,2013-06-26 03:50:00,
2013-06-25 23:00:00,81.5,64.3,18.75,NNE,30,0.0,0.0,56,0.00,,SKC,0.04,VWS V13.01,2013-06-26 04:00:00,
2013-06-25 23:10:00,81.5,63.8,18.75,ENE,62,0.0,2.2,55,0.00,,SKC,0.04,VWS V13.01,2013-06-26 04:10:00,
2013-06-25 23:20:00,81.3,63.6,18.75,ENE,72,0.0,0.0,55,0.00,,SKC,0.04,VWS V13.01,2013-06-26 04:20:00,
2013-06-25 23:30:00,81.1,64.0,18.75,NNE,23,0.0,0.0,56,0.00,,SKC,0.04,VWS V13.01,2013-06-26 04:30:00,
2013-06-25 23:40:00,81.1,64.0,18.75,ENE,63,0.0,0.0,56,0.00,,SKC,0.04,VWS V13.01,2013-06-26 04:40:00,
2013-06-25 23:50:00,81.1,64.0,18.75,SSE,150,0.0,3.1,56,0.00,,SKC,0.04,VWS V13.01,2013-06-26 04:50:00,